Location: Bun Machan
(52.1403°N, 7.3744°W)
Time: 08:38:15
(UTC+00:00)

Cosmos 1943 - Pass Details

Date: 14 July 2020
Orbit: 835 x 848 km, 71.0° (Epoch: 04 August)

Event Time Altitude Azimuth Distance (km) Brightness Sun altitude
Exits shadow 00:19:53 19° 212° (SSW) 1,930 4.6 -16.1°
Maximum altitude 00:24:07 85° 301° (WNW) 854 3.2 -16.2°
Drops below altitude 10° 00:29:48 10° 30° (NNE) 2,469 6.5 -16.2°
Sets 00:32:15 0° 31° (NNE) 3,405 7.4 -16.2°
